Time,TemperatureF,DewpointF,PressureIn,WindDirection,WindDirectionDegrees,WindSpeedMPH,WindSpeedGustMPH,Humidity,HourlyPrecipIn,Conditions,Clouds,dailyrainin,SoftwareType,DateUTC
2013-02-22 00:00:00,16.5,12.0,30.28,NNE,15,0.0,4.0,82,0.00,,CLR,0.00,VWS V14.01,2013-02-22 05:00:00,
2013-02-22 00:05:00,16.5,12.0,30.28,North,8,1.0,4.0,82,0.00,,CLR,0.00,VWS V14.01,2013-02-22 05:05:00,
2013-02-22 00:10:00,16.5,12.0,30.28,North,11,0.0,6.0,82,0.00,,CLR,0.00,VWS V14.01,2013-02-22 05:10:00,
2013-02-22 00:15:00,16.4,11.9,30.28,NNW,339,1.0,1.0,82,0.00,,CLR,0.00,VWS V14.01,2013-02-22 05:15:00,
2013-02-22 00:20:00,16.4,11.9,30.28,NNE,21,1.0,5.0,82,0.00,,CLR,0.00,VWS V14.01,2013-02-22 05:20:00,
2013-02-22 00:25:00,16.4,11.9,30.28,NNE,26,0.0,5.0,82,0.00,,CLR,0.00,VWS V14.01,2013-02-22 05:25:00,
2013-02-22 00:30:00,16.4,11.9,30.28,NNE,19,2.0,3.0,82,0.00,,CLR,0.00,VWS V14.01,2013-02-22 05:30:00,
2013-02-22 00:35:00,16.4,11.9,30.29,NW,323,0.0,3.0,82,0.00,,CLR,0.00,VWS V14.01,2013-02-22 05:35:00,
2013-02-22 00:40:00,16.4,11.9,30.29,NNW,342,2.0,5.0,82,0.00,,CLR,0.00,VWS V14.01,2013-02-22 05:40:00,
2013-02-22 00:45:00,16.3,12.1,30.29,NNW,342,0.0,0.0,83,0.00,,CLR,0.00,VWS V14.01,2013-02-22 05:45:00,
2013-02-22 00:50:00,16.2,12.0,30.29,NNW,342,1.0,4.0,83,0.00,,CLR,0.00,VWS V14.01,2013-02-22 05:50:00,
2013-02-22 00:55:00,16.0,11.8,30.29,NW,307,0.0,4.0,83,0.00,,CLR,0.00,VWS V14.01,2013-02-22 05:55:00,
2013-02-22 01:00:00,16.0,11.8,30.30,NW,322,3.0,6.0,83,0.00,,CLR,0.00,VWS V14.01,2013-02-22 06:00:00,
2013-02-22 01:05:00,16.0,11.8,30.29,SSE,147,1.0,6.0,83,0.00,,CLR,0.00,VWS V14.01,2013-02-22 06:05:00,
2013-02-22 01:10:00,16.1,11.9,30.28,North,11,3.0,7.0,83,0.00,,CLR,0.00,VWS V14.01,2013-02-22 06:10:00,
2013-02-22 01:15:00,16.2,12.0,30.28,NNE,20,0.0,1.0,83,0.00,,CLR,0.00,VWS V14.01,2013-02-22 06:15:00,
2013-02-22 01:20:00,16.2,12.0,30.28,East,101,1.0,5.0,83,0.00,,CLR,0.00,VWS V14.01,2013-02-22 06:20:00,
2013-02-22 01:25:00,16.2,12.0,30.28,North,3,0.0,5.0,83,0.00,,CLR,0.00,VWS V14.01,2013-02-22 06:25:00,
2013-02-22 01:30:00,16.2,12.0,30.28,NW,314,0.0,0.0,83,0.00,,CLR,0.00,VWS V14.01,2013-02-22 06:30:00,
2013-02-22 01:35:00,16.2,12.2,30.28,NE,46,0.0,4.0,84,0.00,,CLR,0.00,VWS V14.01,2013-02-22 06:35:00,
2013-02-22 01:40:00,16.1,12.1,30.28,ENE,78,0.0,4.0,84,0.00,,CLR,0.00,VWS V14.01,2013-02-22 06:40:00,
2013-02-22 01:45:00,16.1,12.1,30.29,North,357,4.0,4.0,84,0.00,,CLR,0.00,VWS V14.01,2013-02-22 06:45:00,
2013-02-22 01:50:00,16.0,12.0,30.30,NE,42,0.0,4.0,84,0.00,,CLR,0.00,VWS V14.01,2013-02-22 06:50:00,
2013-02-22 01:55:00,15.9,11.9,30.30,ENE,67,0.0,4.0,84,0.00,,CLR,0.00,VWS V14.01,2013-02-22 06:55:00,
2013-02-22 02:00:00,16.0,12.0,30.30,NNE,17,2.0,3.0,84,0.00,,CLR,0.00,VWS V14.01,2013-02-22 07:00:00,
2013-02-22 02:05:00,15.9,11.9,30.31,North,6,1.0,4.0,84,0.00,,CLR,0.00,VWS V14.01,2013-02-22 07:05:00,
2013-02-22 02:10:00,15.9,11.9,30.30,NNE,20,2.0,4.0,84,0.00,,CLR,0.00,VWS V14.01,2013-02-22 07:10:00,
2013-02-22 02:15:00,15.8,12.1,30.30,North,1,0.0,0.0,85,0.00,,CLR,0.00,VWS V14.01,2013-02-22 07:15:00,
2013-02-22 02:20:00,15.8,12.1,30.31,NNW,334,0.0,3.0,85,0.00,,CLR,0.00,VWS V14.01,2013-02-22 07:20:00,
2013-02-22 02:25:00,15.9,12.2,30.30,NNE,14,2.0,3.0,85,0.00,,CLR,0.00,VWS V14.01,2013-02-22 07:25:00,
2013-02-22 02:30:00,15.9,12.2,30.30,North,1,2.0,2.0,85,0.00,,CLR,0.00,VWS V14.01,2013-02-22 07:30:00,
2013-02-22 02:35:00,16.0,12.3,30.30,NNE,21,1.0,4.0,85,0.00,,CLR,0.00,VWS V14.01,2013-02-22 07:35:00,
2013-02-22 02:40:00,15.9,12.2,30.30,NNE,32,0.0,4.0,85,0.00,,CLR,0.00,VWS V14.01,2013-02-22 07:40:00,
2013-02-22 02:45:00,15.9,12.2,30.30,North,357,0.0,1.0,85,0.00,,CLR,0.00,VWS V14.01,2013-02-22 07:45:00,
2013-02-22 02:50:00,15.9,12.2,30.30,NNE,25,1.0,2.0,85,0.00,,CLR,0.00,VWS V14.01,2013-02-22 07:50:00,
2013-02-22 02:55:00,16.0,12.3,30.30,North,6,0.0,6.0,85,0.00,,CLR,0.00,VWS V14.01,2013-02-22 07:55:00,
2013-02-22 03:00:00,16.0,12.3,30.30,North,350,0.0,0.0,85,0.00,,CLR,0.00,VWS V14.01,2013-02-22 08:00:00,
2013-02-22 03:05:00,15.9,12.2,30.31,NNW,344,0.0,1.0,85,0.00,,CLR,0.00,VWS V14.01,2013-02-22 08:05:00,
2013-02-22 03:10:00,15.9,12.2,30.30,NNW,330,0.0,2.0,85,0.00,,CLR,0.00,VWS V14.01,2013-02-22 08:10:00,
2013-02-22 03:15:00,15.8,12.1,30.31,SSW,208,0.0,0.0,85,0.00,,CLR,0.00,VWS V14.01,2013-02-22 08:15:00,
2013-02-22 03:20:00,15.7,12.0,30.31,NNE,31,0.0,0.0,85,0.00,,CLR,0.00,VWS V14.01,2013-02-22 08:20:00,
2013-02-22 03:25:00,15.7,12.3,30.31,North,6,0.0,4.0,86,0.00,,CLR,0.00,VWS V14.01,2013-02-22 08:25:00,
2013-02-22 03:30:00,15.6,12.2,30.31,West,264,1.0,1.0,86,0.00,,CLR,0.00,VWS V14.01,2013-02-22 08:30:00,
2013-02-22 03:35:00,15.7,12.3,30.32,North,352,0.0,2.0,86,0.00,,CLR,0.00,VWS V14.01,2013-02-22 08:35:00,
2013-02-22 03:40:00,15.7,12.3,30.32,WNW,287,1.0,2.0,86,0.00,,CLR,0.00,VWS V14.01,2013-02-22 08:40:00,
2013-02-22 03:45:00,15.7,12.3,30.32,North,9,1.0,2.0,86,0.00,,CLR,0.00,VWS V14.01,2013-02-22 08:45:00,
2013-02-22 03:50:00,15.7,12.3,30.32,ENE,75,0.0,3.0,86,0.00,,CLR,0.00,VWS V14.01,2013-02-22 08:50:00,
2013-02-22 03:55:00,15.7,12.3,30.32,NE,36,0.0,3.0,86,0.00,,CLR,0.00,VWS V14.01,2013-02-22 08:55:00,
2013-02-22 04:00:00,15.6,12.2,30.32,WNW,299,2.0,2.0,86,0.00,,CLR,0.00,VWS V14.01,2013-02-22 09:00:00,
2013-02-22 04:05:00,15.6,12.2,30.32,NNE,25,0.0,3.0,86,0.00,,CLR,0.00,VWS V14.01,2013-02-22 09:05:00,
2013-02-22 04:10:00,15.6,12.2,30.32,NW,311,0.0,3.0,86,0.00,,CLR,0.00,VWS V14.01,2013-02-22 09:10:00,
2013-02-22 04:15:00,15.6,12.4,30.32,NW,324,0.0,0.0,87,0.00,,CLR,0.00,VWS V14.01,2013-02-22 09:15:00,
2013-02-22 04:20:00,15.6,12.4,30.33,West,260,0.0,2.0,87,0.00,,CLR,0.00,VWS V14.01,2013-02-22 09:20:00,
2013-02-22 04:25:00,15.6,12.4,30.33,NNE,30,2.0,2.0,87,0.00,,CLR,0.00,VWS V14.01,2013-02-22 09:25:00,
2013-02-22 04:30:00,15.5,12.3,30.33,NNW,337,1.0,1.0,87,0.00,,CLR,0.00,VWS V14.01,2013-02-22 09:30:00,
2013-02-22 04:35:00,15.5,12.3,30.32,NE,53,0.0,2.0,87,0.00,,CLR,0.00,VWS V14.01,2013-02-22 09:35:00,
2013-02-22 04:40:00,15.6,12.4,30.32,NE,46,0.0,3.0,87,0.00,,CLR,0.00,VWS V14.01,2013-02-22 09:40:00,
2013-02-22 04:45:00,15.7,12.5,30.33,NNE,20,1.0,1.0,87,0.00,,CLR,0.00,VWS V14.01,2013-02-22 09:45:00,
2013-02-22 04:50:00,15.8,12.6,30.32,NE,45,0.0,2.0,87,0.00,,CLR,0.00,VWS V14.01,2013-02-22 09:50:00,
2013-02-22 04:55:00,15.8,12.6,30.32,NNE,29,0.0,2.0,87,0.00,,CLR,0.00,VWS V14.01,2013-02-22 09:55:00,
2013-02-22 05:00:00,15.8,12.6,30.32,West,278,1.0,2.0,87,0.00,,CLR,0.00,VWS V14.01,2013-02-22 10:00:00,
2013-02-22 05:05:00,15.8,12.6,30.32,North,9,0.0,3.0,87,0.00,,CLR,0.00,VWS V14.01,2013-02-22 10:05:00,
2013-02-22 05:10:00,15.8,12.6,30.32,NW,308,0.0,3.0,87,0.00,,CLR,0.00,VWS V14.01,2013-02-22 10:10:00,
2013-02-22 05:15:00,15.7,12.5,30.32,NNW,340,0.0,3.0,87,0.00,,CLR,0.00,VWS V14.01,2013-02-22 10:15:00,
2013-02-22 05:20:00,15.7,12.5,30.33,North,11,0.0,1.0,87,0.00,,CLR,0.00,VWS V14.01,2013-02-22 10:20:00,
2013-02-22 05:25:00,15.6,12.4,30.33,North,360,0.0,1.0,87,0.00,,CLR,0.00,VWS V14.01,2013-02-22 10:25:00,
2013-02-22 05:30:00,15.6,12.4,30.34,North,352,0.0,1.0,87,0.00,,CLR,0.00,VWS V14.01,2013-02-22 10:30:00,
2013-02-22 05:35:00,15.6,12.7,30.35,North,350,1.0,1.0,88,0.00,,CLR,0.00,VWS V14.01,2013-02-22 10:35:00,
2013-02-22 05:40:00,15.7,12.8,30.34,NNE,22,0.0,2.0,88,0.00,,CLR,0.00,VWS V14.01,2013-02-22 10:40:00,
2013-02-22 05:45:00,15.7,12.8,30.34,NNE,19,0.0,2.0,88,0.00,,CLR,0.00,VWS V14.01,2013-02-22 10:45:00,
2013-02-22 05:50:00,15.8,12.9,30.34,NNE,19,0.0,0.0,88,0.00,,CLR,0.00,VWS V14.01,2013-02-22 10:50:00,
2013-02-22 05:55:00,15.8,12.9,30.35,NNE,20,0.0,1.0,88,0.00,,CLR,0.00,VWS V14.01,2013-02-22 10:55:00,
2013-02-22 06:00:00,15.8,12.9,30.35,NNW,330,0.0,1.0,88,0.00,,CLR,0.00,VWS V14.01,2013-02-22 11:00:00,
2013-02-22 06:05:00,15.8,12.9,30.36,NNW,330,0.0,0.0,88,0.00,,CLR,0.00,VWS V14.01,2013-02-22 11:05:00,
2013-02-22 06:09:00,15.7,12.8,30.37,NNW,330,0.0,1.0,88,0.00,,CLR,0.00,VWS V14.01,2013-02-22 11:09:00,
2013-02-22 06:14:00,15.6,12.7,30.37,NNW,336,0.0,1.0,88,0.00,,CLR,0.00,VWS V14.01,2013-02-22 11:14:00,
2013-02-22 06:19:00,15.7,12.8,30.38,WNW,297,0.0,1.0,88,0.00,,CLR,0.00,VWS V14.01,2013-02-22 11:19:00,
2013-02-22 06:24:00,15.9,13.0,30.38,West,274,0.0,1.0,88,0.00,,CLR,0.00,VWS V14.01,2013-02-22 11:24:00,
2013-02-22 06:29:00,15.8,12.9,30.37,North,3,0.0,1.0,88,0.00,,CLR,0.00,VWS V14.01,2013-02-22 11:29:00,
2013-02-22 06:34:00,15.9,13.0,30.37,NE,49,0.0,1.0,88,0.00,,CLR,0.00,VWS V14.01,2013-02-22 11:34:00,
2013-02-22 06:39:00,15.9,13.0,30.36,NE,49,0.0,1.0,88,0.00,,CLR,0.00,VWS V14.01,2013-02-22 11:39:00,
2013-02-22 06:44:00,15.8,12.9,30.37,NE,48,0.0,1.0,88,0.00,,CLR,0.00,VWS V14.01,2013-02-22 11:44:00,
2013-02-22 06:49:00,15.9,13.0,30.36,NE,46,0.0,0.0,88,0.00,,CLR,0.00,VWS V14.01,2013-02-22 11:49:00,
2013-02-22 06:54:00,15.9,13.0,30.37,NE,47,0.0,0.0,88,0.00,,CLR,0.00,VWS V14.01,2013-02-22 11:54:00,
2013-02-22 06:59:00,16.0,13.1,30.36,NW,311,0.0,0.0,88,0.00,,CLR,0.00,VWS V14.01,2013-02-22 11:59:00,
2013-02-22 07:04:00,16.1,13.2,30.36,NNW,344,0.0,0.0,88,0.00,,CLR,0.00,VWS V14.01,2013-02-22 12:04:00,
2013-02-22 07:09:00,16.3,13.4,30.36,NE,39,0.0,2.0,88,0.00,,CLR,0.00,VWS V14.01,2013-02-22 12:09:00,
2013-02-22 07:14:00,16.4,13.5,30.37,NE,39,0.0,2.0,88,0.00,,CLR,0.00,VWS V14.01,2013-02-22 12:14:00,
2013-02-22 07:19:00,16.6,13.7,30.37,North,6,1.0,2.0,88,0.00,,CLR,0.00,VWS V14.01,2013-02-22 12:19:00,
2013-02-22 07:24:00,16.9,14.0,30.37,NNE,16,0.0,3.0,88,0.00,,CLR,0.00,VWS V14.01,2013-02-22 12:24:00,
2013-02-22 07:29:00,17.2,14.0,30.37,North,9,0.0,3.0,87,0.00,,CLR,0.00,VWS V14.01,2013-02-22 12:29:00,
2013-02-22 07:34:00,17.4,14.2,30.38,NNE,13,0.0,2.0,87,0.00,,CLR,0.00,VWS V14.01,2013-02-22 12:34:00,
2013-02-22 07:39:00,17.7,14.5,30.38,North,354,0.0,2.0,87,0.00,,CLR,0.00,VWS V14.01,2013-02-22 12:39:00,
2013-02-22 07:44:00,17.9,14.4,30.38,NNE,31,2.0,2.0,86,0.00,,CLR,0.00,VWS V14.01,2013-02-22 12:44:00,
2013-02-22 07:49:00,18.1,14.6,30.39,NE,50,0.0,2.0,86,0.00,,CLR,0.00,VWS V14.01,2013-02-22 12:49:00,
2013-02-22 07:54:00,18.3,14.8,30.38,North,9,1.0,2.0,86,0.00,,CLR,0.00,VWS V14.01,2013-02-22 12:54:00,
2013-02-22 07:59:00,18.5,14.8,30.38,NNE,29,0.0,2.0,85,0.00,,CLR,0.00,VWS V14.01,2013-02-22 12:59:00,
2013-02-22 08:04:00,18.8,15.3,30.38,NNE,25,0.0,2.0,86,0.00,,CLR,0.00,VWS V14.01,2013-02-22 13:04:00,
2013-02-22 08:09:00,19.0,15.2,30.37,NNE,20,0.0,2.0,85,0.00,,CLR,0.00,VWS V14.01,2013-02-22 13:09:00,
2013-02-22 08:14:00,19.3,15.5,30.38,NNE,16,0.0,2.0,85,0.00,,CLR,0.00,VWS V14.01,2013-02-22 13:14:00,
2013-02-22 08:19:00,19.6,15.8,30.38,NNW,346,0.0,1.0,85,0.00,,CLR,0.00,VWS V14.01,2013-02-22 13:19:00,
2013-02-22 08:24:00,19.8,16.0,30.38,North,1,0.0,1.0,85,0.00,,CLR,0.00,VWS V14.01,2013-02-22 13:24:00,
2013-02-22 08:29:00,20.0,16.2,30.38,North,1,0.0,1.0,85,0.00,,CLR,0.00,VWS V14.01,2013-02-22 13:29:00,
2013-02-22 08:34:00,20.2,16.1,30.38,NNE,21,0.0,1.0,84,0.00,,CLR,0.00,VWS V14.01,2013-02-22 13:34:00,
2013-02-22 08:39:00,20.5,16.4,30.39,North,360,0.0,1.0,84,0.00,,CLR,0.00,VWS V14.01,2013-02-22 13:39:00,
2013-02-22 08:44:00,20.8,16.7,30.38,North,359,0.0,1.0,84,0.00,,CLR,0.00,VWS V14.01,2013-02-22 13:44:00,
2013-02-22 08:49:00,21.1,16.8,30.38,North,359,0.0,1.0,83,0.00,,CLR,0.00,VWS V14.01,2013-02-22 13:49:00,
2013-02-22 08:54:00,21.4,17.0,30.38,NNE,19,0.0,1.0,83,0.00,,CLR,0.00,VWS V14.01,2013-02-22 13:54:00,
2013-02-22 08:59:00,21.6,17.2,30.38,NNE,18,0.0,1.0,83,0.00,,CLR,0.00,VWS V14.01,2013-02-22 13:59:00,
2013-02-22 09:04:00,21.9,17.3,30.37,ENE,60,0.0,0.0,82,0.00,,CLR,0.00,VWS V14.01,2013-02-22 14:04:00,
2013-02-22 09:09:00,22.3,17.9,30.38,ENE,59,0.0,1.0,83,0.00,,CLR,0.00,VWS V14.01,2013-02-22 14:09:00,
2013-02-22 09:14:00,23.4,19.0,30.37,East,90,0.0,1.0,83,0.00,,CLR,0.00,VWS V14.01,2013-02-22 14:14:00,
2013-02-22 09:19:00,24.7,20.0,30.37,East,94,1.0,1.0,82,0.00,,CLR,0.00,VWS V14.01,2013-02-22 14:19:00,
2013-02-22 09:24:00,25.5,20.2,30.37,SE,132,0.0,2.0,80,0.00,,CLR,0.00,VWS V14.01,2013-02-22 14:24:00,
2013-02-22 09:29:00,27.0,21.1,30.37,East,79,0.0,2.0,78,0.00,,CLR,0.00,VWS V14.01,2013-02-22 14:29:00,
2013-02-22 09:34:00,26.7,19.9,30.36,East,83,4.0,4.0,75,0.00,,CLR,0.00,VWS V14.01,2013-02-22 14:34:00,
2013-02-22 09:39:00,27.0,20.1,30.36,ESE,111,3.0,5.0,75,0.00,,CLR,0.00,VWS V14.01,2013-02-22 14:39:00,
2013-02-22 09:44:00,27.5,20.6,30.36,ESE,108,4.0,6.0,75,0.00,,CLR,0.00,VWS V14.01,2013-02-22 14:44:00,
2013-02-22 09:49:00,27.7,20.2,30.37,ENE,58,7.0,10.0,73,0.00,,CLR,0.00,VWS V14.01,2013-02-22 14:49:00,
2013-02-22 09:54:00,28.0,20.5,30.37,ESE,118,6.0,10.0,73,0.00,,CLR,0.00,VWS V14.01,2013-02-22 14:54:00,
2013-02-22 09:59:00,28.3,20.4,30.37,East,88,2.0,10.0,72,0.00,,CLR,0.00,VWS V14.01,2013-02-22 14:59:00,
2013-02-22 10:04:00,28.4,19.9,30.36,East,89,3.0,8.0,70,0.00,,CLR,0.00,VWS V14.01,2013-02-22 15:04:00,
2013-02-22 10:09:00,28.8,20.3,30.36,SE,131,2.0,8.0,70,0.00,,CLR,0.00,VWS V14.01,2013-02-22 15:09:00,
2013-02-22 10:14:00,29.2,20.6,30.37,SE,124,3.0,8.0,70,0.00,,CLR,0.00,VWS V14.01,2013-02-22 15:14:00,
2013-02-22 10:19:00,29.1,20.5,30.37,SE,131,6.0,12.0,70,0.00,,CLR,0.00,VWS V14.01,2013-02-22 15:19:00,
2013-02-22 10:24:00,29.3,20.7,30.37,SE,146,4.0,12.0,70,0.00,,CLR,0.00,VWS V14.01,2013-02-22 15:24:00,
2013-02-22 10:29:00,29.8,21.2,30.37,SSW,200,6.0,12.0,70,0.00,,CLR,0.00,VWS V14.01,2013-02-22 15:29:00,
2013-02-22 10:34:00,30.2,21.3,30.37,ESE,108,3.0,9.0,69,0.00,,CLR,0.00,VWS V14.01,2013-02-22 15:34:00,
2013-02-22 10:39:00,30.2,21.3,30.36,ESE,117,6.0,10.0,69,0.00,,CLR,0.00,VWS V14.01,2013-02-22 15:39:00,
2013-02-22 10:44:00,30.3,21.0,30.36,SE,131,5.0,10.0,68,0.00,,CLR,0.00,VWS V14.01,2013-02-22 15:44:00,
2013-02-22 10:49:00,30.5,21.6,30.36,South,187,3.0,12.0,69,0.00,,CLR,0.00,VWS V14.01,2013-02-22 15:49:00,
2013-02-22 10:54:00,30.8,21.5,30.36,ESE,120,3.0,12.0,68,0.00,,CLR,0.00,VWS V14.01,2013-02-22 15:54:00,
2013-02-22 10:59:00,30.7,21.8,30.37,SE,124,3.0,12.0,69,0.00,,CLR,0.00,VWS V14.01,2013-02-22 15:59:00,
2013-02-22 11:04:00,30.7,21.1,30.37,ESE,118,5.0,11.0,67,0.00,,CLR,0.00,VWS V14.01,2013-02-22 16:04:00,
2013-02-22 11:09:00,30.5,21.2,30.37,SE,145,8.0,11.0,68,0.00,,CLR,0.00,VWS V14.01,2013-02-22 16:09:00,
2013-02-22 11:14:00,30.4,21.1,30.37,ESE,121,5.0,11.0,68,0.00,,CLR,0.00,VWS V14.01,2013-02-22 16:14:00,
2013-02-22 11:19:00,30.2,20.9,30.37,SE,134,3.0,10.0,68,0.00,,CLR,0.00,VWS V14.01,2013-02-22 16:19:00,
2013-02-22 11:24:00,30.1,20.8,30.37,ESE,117,4.0,10.0,68,0.00,,CLR,0.00,VWS V14.01,2013-02-22 16:24:00,
2013-02-22 11:29:00,30.1,21.2,30.37,SE,124,7.0,10.0,69,0.00,,CLR,0.00,VWS V14.01,2013-02-22 16:29:00,
2013-02-22 11:34:00,30.4,21.5,30.37,ESE,121,2.0,8.0,69,0.00,,CLR,0.00,VWS V14.01,2013-02-22 16:34:00,
2013-02-22 11:39:00,30.4,21.5,30.37,ESE,104,6.0,8.0,69,0.00,,CLR,0.00,VWS V14.01,2013-02-22 16:39:00,
2013-02-22 11:44:00,30.5,21.6,30.35,SE,131,6.0,8.0,69,0.00,,CLR,0.00,VWS V14.01,2013-02-22 16:44:00,
2013-02-22 11:49:00,30.5,21.6,30.36,SSW,195,4.0,8.0,69,0.00,,CLR,0.00,VWS V14.01,2013-02-22 16:49:00,
2013-02-22 11:54:00,30.5,21.6,30.36,SE,128,4.0,8.0,69,0.00,,CLR,0.00,VWS V14.01,2013-02-22 16:54:00,
2013-02-22 11:59:00,30.5,21.2,30.35,SSE,155,6.0,9.0,68,0.00,,CLR,0.00,VWS V14.01,2013-02-22 16:59:00,
2013-02-22 12:04:00,30.3,21.4,30.35,SE,138,6.0,9.0,69,0.00,,-RA,0.00,VWS V14.01,2013-02-22 17:04:00,
2013-02-22 12:09:00,30.4,21.5,30.35,SE,142,7.0,9.0,69,0.00,,-RA,0.00,VWS V14.01,2013-02-22 17:09:00,
2013-02-22 12:14:00,30.4,21.1,30.35,SE,146,2.0,11.0,68,0.00,,-RA,0.00,VWS V14.01,2013-02-22 17:14:00,
2013-02-22 12:19:00,30.5,21.6,30.35,SE,132,6.0,9.0,69,0.00,,-RA,0.00,VWS V14.01,2013-02-22 17:19:00,
2013-02-22 12:24:00,30.2,21.3,30.34,ESE,111,6.0,9.0,69,0.00,,-RA,0.00,VWS V14.01,2013-02-22 17:24:00,
2013-02-22 12:29:00,30.3,21.4,30.34,SE,125,8.0,9.0,69,0.00,,-RA,0.00,VWS V14.01,2013-02-22 17:29:00,
2013-02-22 12:34:00,30.3,21.4,30.34,East,80,6.0,9.0,69,0.00,,-RA,0.00,VWS V14.01,2013-02-22 17:34:00,
2013-02-22 12:39:00,30.3,21.4,30.33,ESE,117,2.0,9.0,69,0.00,,-RA,0.00,VWS V14.01,2013-02-22 17:39:00,
2013-02-22 12:44:00,30.6,21.6,30.32,ESE,108,6.0,9.0,69,0.00,,-RA,0.00,VWS V14.01,2013-02-22 17:44:00,
2013-02-22 12:49:00,30.8,21.5,30.32,ESE,107,7.0,9.0,68,0.00,,-RA,0.00,VWS V14.01,2013-02-22 17:49:00,
2013-02-22 12:54:00,30.9,21.6,30.32,SE,141,3.0,9.0,68,0.00,,-RA,0.00,VWS V14.01,2013-02-22 17:54:00,
2013-02-22 12:59:00,31.3,22.0,30.31,SE,131,6.0,9.0,68,0.00,,-RA,0.00,VWS V14.01,2013-02-22 17:59:00,
2013-02-22 13:04:00,31.3,21.6,30.32,ESE,118,6.0,9.0,67,0.00,,-RA,0.00,VWS V14.01,2013-02-22 18:04:00,
2013-02-22 13:09:00,31.4,21.7,30.31,SSE,149,5.0,9.0,67,0.00,,-RA,0.00,VWS V14.01,2013-02-22 18:09:00,
2013-02-22 13:14:00,31.6,22.3,30.31,SSE,148,4.0,9.0,68,0.00,,-RA,0.00,VWS V14.01,2013-02-22 18:14:00,
2013-02-22 13:19:00,31.9,22.2,30.31,SSE,152,6.0,8.0,67,0.00,,-RA,0.00,VWS V14.01,2013-02-22 18:19:00,
2013-02-22 13:24:00,31.8,22.1,30.31,SE,140,5.0,8.0,67,0.00,,-RA,0.00,VWS V14.01,2013-02-22 18:24:00,
2013-02-22 13:29:00,31.8,22.1,30.31,SSE,155,4.0,8.0,67,0.00,,-RA,0.00,VWS V14.01,2013-02-22 18:29:00,
2013-02-22 13:34:00,32.1,22.8,30.31,SE,146,4.0,6.0,68,0.00,,-RA,0.00,VWS V14.01,2013-02-22 18:34:00,
2013-02-22 13:39:00,32.3,22.9,30.30,South,172,3.0,7.0,68,0.00,,-RA,0.00,VWS V14.01,2013-02-22 18:39:00,
2013-02-22 13:44:00,32.6,22.9,30.31,SE,124,5.0,7.0,67,0.00,,-RA,0.00,VWS V14.01,2013-02-22 18:44:00,
2013-02-22 13:49:00,32.6,22.5,30.31,SE,143,5.0,8.0,66,0.00,,-RA,0.00,VWS V14.01,2013-02-22 18:49:00,
2013-02-22 13:54:00,32.4,22.0,30.30,SSE,167,7.0,9.0,65,0.00,,-RA,0.00,VWS V14.01,2013-02-22 18:54:00,
2013-02-22 13:59:00,32.5,22.4,30.30,South,176,4.0,9.0,66,0.00,,-RA,0.00,VWS V14.01,2013-02-22 18:59:00,
2013-02-22 14:04:00,32.7,22.6,30.29,SSE,150,7.0,8.0,66,0.00,,-RA,0.00,VWS V14.01,2013-02-22 19:04:00,
2013-02-22 14:09:00,32.6,22.1,30.29,SE,138,3.0,8.0,65,0.00,,-RA,0.00,VWS V14.01,2013-02-22 19:09:00,
2013-02-22 14:14:00,32.4,22.0,30.29,SE,129,4.0,9.0,65,0.00,,-RA,0.00,VWS V14.01,2013-02-22 19:14:00,
2013-02-22 14:19:00,32.4,22.3,30.29,ESE,111,3.0,5.0,66,0.00,,-RA,0.00,VWS V14.01,2013-02-22 19:19:00,
2013-02-22 14:24:00,32.6,22.1,30.29,South,183,4.0,9.0,65,0.00,,-RA,0.00,VWS V14.01,2013-02-22 19:24:00,
2013-02-22 14:29:00,32.6,22.1,30.29,SE,131,6.0,9.0,65,0.00,,-RA,0.00,VWS V14.01,2013-02-22 19:29:00,
2013-02-22 14:34:00,32.7,22.2,30.29,SE,142,5.0,8.0,65,0.00,,-RA,0.00,VWS V14.01,2013-02-22 19:34:00,
2013-02-22 14:39:00,32.8,22.3,30.30,SSE,155,3.0,9.0,65,0.00,,-RA,0.00,VWS V14.01,2013-02-22 19:39:00,
2013-02-22 14:44:00,33.1,22.6,30.29,SE,125,2.0,9.0,65,0.00,,-RA,0.00,VWS V14.01,2013-02-22 19:44:00,
2013-02-22 14:49:00,33.3,22.8,30.29,South,172,2.0,5.0,65,0.00,,-RA,0.00,VWS V14.01,2013-02-22 19:49:00,
2013-02-22 14:54:00,33.4,22.9,30.29,SE,138,4.0,6.0,65,0.00,,-RA,0.00,VWS V14.01,2013-02-22 19:54:00,
2013-02-22 14:59:00,33.5,22.6,30.28,South,179,3.0,6.0,64,0.00,,-RA,0.00,VWS V14.01,2013-02-22 19:59:00,
2013-02-22 15:04:00,33.4,22.5,30.29,SW,226,2.0,6.0,64,0.00,,CLR,0.00,VWS V14.01,2013-02-22 20:04:00,
2013-02-22 15:09:00,33.4,22.9,30.29,South,183,2.0,6.0,65,0.00,,CLR,0.00,VWS V14.01,2013-02-22 20:09:00,
2013-02-22 15:14:00,33.4,22.5,30.29,SSW,212,6.0,6.0,64,0.00,,CLR,0.00,VWS V14.01,2013-02-22 20:14:00,
2013-02-22 15:19:00,33.1,22.3,30.29,SSE,150,4.0,6.0,64,0.00,,CLR,0.00,VWS V14.01,2013-02-22 20:19:00,
2013-02-22 15:24:00,33.0,22.5,30.29,SE,138,3.0,6.0,65,0.00,,CLR,0.00,VWS V14.01,2013-02-22 20:24:00,
2013-02-22 15:29:00,32.9,22.1,30.29,SE,127,4.0,7.0,64,0.00,,CLR,0.00,VWS V14.01,2013-02-22 20:29:00,
2013-02-22 15:34:00,32.7,22.2,30.29,SSE,163,1.0,6.0,65,0.00,,CLR,0.00,VWS V14.01,2013-02-22 20:34:00,
2013-02-22 15:39:00,32.9,22.8,30.30,SE,145,3.0,6.0,66,0.00,,CLR,0.00,VWS V14.01,2013-02-22 20:39:00,
2013-02-22 15:44:00,32.8,22.3,30.29,SE,145,2.0,6.0,65,0.00,,CLR,0.00,VWS V14.01,2013-02-22 20:44:00,
2013-02-22 15:49:00,32.8,22.7,30.29,South,170,3.0,6.0,66,0.00,,CLR,0.00,VWS V14.01,2013-02-22 20:49:00,
2013-02-22 15:54:00,32.8,22.7,30.29,SSE,148,3.0,6.0,66,0.00,,CLR,0.00,VWS V14.01,2013-02-22 20:54:00,
2013-02-22 15:59:00,32.7,22.6,30.29,SE,143,4.0,6.0,66,0.00,,CLR,0.00,VWS V14.01,2013-02-22 20:59:00,
2013-02-22 16:04:00,32.8,22.7,30.29,SE,146,1.0,5.0,66,0.00,,OVC100,0.00,VWS V14.01,2013-02-22 21:04:00,
2013-02-22 16:09:00,32.8,22.7,30.30,SSE,150,3.0,6.0,66,0.00,,OVC100,0.00,VWS V14.01,2013-02-22 21:09:00,
2013-02-22 16:14:00,32.8,23.1,30.29,SSE,152,4.0,6.0,67,0.00,,OVC100,0.00,VWS V14.01,2013-02-22 21:14:00,
2013-02-22 16:19:00,32.8,23.1,30.29,SE,146,1.0,4.0,67,0.00,,OVC100,0.00,VWS V14.01,2013-02-22 21:19:00,
2013-02-22 16:24:00,32.7,23.0,30.29,South,173,1.0,4.0,67,0.00,,OVC100,0.00,VWS V14.01,2013-02-22 21:24:00,
2013-02-22 16:29:00,32.6,22.9,30.29,SSE,153,3.0,6.0,67,0.00,,OVC100,0.00,VWS V14.01,2013-02-22 21:29:00,
2013-02-22 16:34:00,32.4,23.0,30.29,SSE,160,4.0,7.0,68,0.00,,OVC100,0.00,VWS V14.01,2013-02-22 21:34:00,
2013-02-22 16:39:00,32.3,23.3,30.29,SE,135,3.0,7.0,69,0.00,,OVC100,0.00,VWS V14.01,2013-02-22 21:39:00,
2013-02-22 16:44:00,32.3,22.9,30.29,SSE,148,2.0,7.0,68,0.00,,OVC100,0.00,VWS V14.01,2013-02-22 21:44:00,
2013-02-22 16:49:00,32.2,23.2,30.29,South,176,2.0,6.0,69,0.00,,OVC100,0.00,VWS V14.01,2013-02-22 21:49:00,
2013-02-22 16:54:00,32.1,22.8,30.29,SE,137,2.0,7.0,68,0.00,,OVC100,0.00,VWS V14.01,2013-02-22 21:54:00,
2013-02-22 16:59:00,32.0,23.3,30.29,SE,141,4.0,7.0,70,0.00,,OVC100,0.00,VWS V14.01,2013-02-22 21:59:00,
2013-02-22 17:04:00,31.9,23.2,30.29,South,191,6.0,8.0,70,0.00,,-RA,0.00,VWS V14.01,2013-02-22 22:04:00,
2013-02-22 17:09:00,31.8,23.1,30.29,SSE,149,3.0,8.0,70,0.00,,-RA,0.00,VWS V14.01,2013-02-22 22:09:00,
2013-02-22 17:14:00,31.8,23.1,30.30,SE,137,1.0,8.0,70,0.00,,-RA,0.00,VWS V14.01,2013-02-22 22:14:00,
2013-02-22 17:19:00,31.7,23.7,30.30,SSE,165,2.0,6.0,72,0.00,,-RA,0.00,VWS V14.01,2013-02-22 22:19:00,
2013-02-22 17:24:00,31.6,23.6,30.29,SSE,162,4.0,7.0,72,0.00,,-RA,0.00,VWS V14.01,2013-02-22 22:24:00,
2013-02-22 17:29:00,31.5,23.5,30.29,SSE,159,3.0,7.0,72,0.00,,-RA,0.00,VWS V14.01,2013-02-22 22:29:00,
2013-02-22 17:34:00,31.4,23.8,30.30,SSE,153,4.0,5.0,73,0.00,,-RA,0.00,VWS V14.01,2013-02-22 22:34:00,
2013-02-22 17:39:00,31.3,24.0,30.30,SSE,155,3.0,5.0,74,0.00,,-RA,0.00,VWS V14.01,2013-02-22 22:39:00,
2013-02-22 17:44:00,31.3,24.0,30.30,South,172,3.0,5.0,74,0.00,,-RA,0.00,VWS V14.01,2013-02-22 22:44:00,
2013-02-22 17:49:00,31.1,23.8,30.29,SSE,166,5.0,9.0,74,0.00,,-RA,0.00,VWS V14.01,2013-02-22 22:49:00,
2013-02-22 17:54:00,31.0,24.0,30.29,SSE,160,4.0,9.0,75,0.00,,-RA,0.00,VWS V14.01,2013-02-22 22:54:00,
2013-02-22 17:59:00,30.9,24.2,30.29,SE,146,5.0,9.0,76,0.00,,-RA,0.00,VWS V14.01,2013-02-22 22:59:00,
2013-02-22 18:04:00,30.7,24.0,30.29,SSE,149,4.0,7.0,76,0.00,,OVC070,0.00,VWS V14.01,2013-02-22 23:04:00,
2013-02-22 18:32:00,30.3,24.3,30.29,SSE,155,2.0,8.0,78,0.00,,OVC070,0.00,VWS V14.01,2013-02-22 23:32:00,
2013-02-22 18:37:00,30.3,24.6,30.29,SE,134,4.0,8.0,79,0.00,,OVC070,0.00,VWS V14.01,2013-02-22 23:37:00,
2013-02-22 18:41:00,30.2,24.5,30.29,ESE,118,4.0,8.0,79,0.00,,OVC070,0.00,VWS V14.01,2013-02-22 23:41:00,
2013-02-22 18:46:00,30.2,24.5,30.29,SSE,162,3.0,7.0,79,0.00,,OVC070,0.00,VWS V14.01,2013-02-22 23:46:00,
2013-02-22 18:51:00,30.2,24.8,30.29,SE,134,4.0,7.0,80,0.00,,OVC070,0.00,VWS V14.01,2013-02-22 23:51:00,
2013-02-22 18:56:00,30.2,24.8,30.30,SSE,167,2.0,7.0,80,0.00,,OVC070,0.00,VWS V14.01,2013-02-22 23:56:00,
2013-02-22 19:01:00,30.2,24.8,30.29,SSE,153,2.0,5.0,80,0.00,,-RA,0.00,VWS V14.01,2013-02-23 00:01:00,
2013-02-22 19:06:00,30.2,25.1,30.29,SSE,155,3.0,5.0,81,0.00,,-RA,0.00,VWS V14.01,2013-02-23 00:06:00,
2013-02-22 19:11:00,30.2,24.8,30.29,SE,141,2.0,5.0,80,0.00,,-RA,0.00,VWS V14.01,2013-02-23 00:11:00,
2013-02-22 19:16:00,30.2,25.1,30.29,SSW,195,1.0,3.0,81,0.00,,-RA,0.00,VWS V14.01,2013-02-23 00:16:00,
2013-02-22 19:21:00,30.2,25.1,30.30,SSE,149,4.0,5.0,81,0.00,,-RA,0.00,VWS V14.01,2013-02-23 00:21:00,
2013-02-22 19:26:00,30.1,25.0,30.29,SSE,160,5.0,9.0,81,0.00,,-RA,0.00,VWS V14.01,2013-02-23 00:26:00,
2013-02-22 19:31:00,30.0,25.2,30.30,SSE,158,5.0,5.0,82,0.00,,-RA,0.00,VWS V14.01,2013-02-23 00:31:00,
2013-02-22 19:36:00,30.0,25.2,30.30,SSE,153,4.0,5.0,82,0.00,,-RA,0.00,VWS V14.01,2013-02-23 00:36:00,
2013-02-22 19:41:00,30.0,25.2,30.30,SSE,147,3.0,8.0,82,0.00,,-RA,0.00,VWS V14.01,2013-02-23 00:41:00,
2013-02-22 19:46:00,29.9,25.4,30.30,SSE,160,6.0,7.0,83,0.00,,-RA,0.00,VWS V14.01,2013-02-23 00:46:00,
2013-02-22 19:51:00,29.8,25.3,30.30,SSE,152,6.0,9.0,83,0.00,,-RA,0.00,VWS V14.01,2013-02-23 00:51:00,
2013-02-22 19:56:00,29.8,25.6,30.30,South,171,5.0,9.0,84,0.00,,-RA,0.00,VWS V14.01,2013-02-23 00:56:00,
2013-02-22 20:01:00,29.8,25.6,30.30,SSE,155,3.0,7.0,84,0.00,,-RA,0.00,VWS V14.01,2013-02-23 01:01:00,
2013-02-22 20:06:00,29.8,25.6,30.30,SSE,160,3.0,10.0,84,0.00,,-RA,0.00,VWS V14.01,2013-02-23 01:06:00,
2013-02-22 20:11:00,29.7,25.8,30.29,SSE,162,5.0,10.0,85,0.00,,-RA,0.00,VWS V14.01,2013-02-23 01:11:00,
2013-02-22 20:16:00,29.8,25.9,30.29,SSE,161,4.0,5.0,85,0.00,,-RA,0.00,VWS V14.01,2013-02-23 01:16:00,
2013-02-22 20:21:00,29.7,26.0,30.29,SSE,153,5.0,6.0,86,0.00,,-RA,0.00,VWS V14.01,2013-02-23 01:21:00,
2013-02-22 20:26:00,29.8,26.1,30.29,SSE,155,1.0,6.0,86,0.00,,-RA,0.00,VWS V14.01,2013-02-23 01:26:00,
2013-02-22 20:31:00,29.8,26.1,30.29,South,176,6.0,11.0,86,0.00,,-RA,0.00,VWS V14.01,2013-02-23 01:31:00,
2013-02-22 20:36:00,29.8,26.1,30.29,SSE,162,5.0,11.0,86,0.00,,-RA,0.00,VWS V14.01,2013-02-23 01:36:00,
2013-02-22 20:41:00,29.8,26.4,30.29,SE,132,3.0,11.0,87,0.00,,-RA,0.00,VWS V14.01,2013-02-23 01:41:00,
2013-02-22 20:46:00,29.8,26.4,30.29,SSE,156,4.0,5.0,87,0.00,,-RA,0.00,VWS V14.01,2013-02-23 01:46:00,
2013-02-22 20:51:00,29.8,26.4,30.28,SSW,195,0.0,6.0,87,0.00,,-RA,0.00,VWS V14.01,2013-02-23 01:51:00,
2013-02-22 20:56:00,29.8,26.4,30.28,SSW,202,2.0,6.0,87,0.00,,-RA,0.00,VWS V14.01,2013-02-23 01:56:00,
2013-02-22 21:01:00,29.9,26.8,30.28,SSE,158,2.0,5.0,88,0.00,,OVC055,0.00,VWS V14.01,2013-02-23 02:01:00,
2013-02-22 21:06:00,29.9,26.8,30.28,SSW,201,0.0,7.0,88,0.00,,OVC055,0.00,VWS V14.01,2013-02-23 02:06:00,
2013-02-22 21:11:00,29.9,26.8,30.28,SSW,197,0.0,7.0,88,0.00,,OVC055,0.00,VWS V14.01,2013-02-23 02:11:00,
2013-02-22 21:16:00,29.9,26.8,30.28,SE,138,3.0,4.0,88,0.00,,-RA,0.00,VWS V14.01,2013-02-23 02:16:00,
2013-02-22 21:21:00,29.9,26.8,30.27,SW,232,3.0,4.0,88,0.00,,-RA,0.00,VWS V14.01,2013-02-23 02:21:00,
2013-02-22 21:26:00,29.9,27.1,30.27,SE,138,1.0,5.0,89,0.00,,-RA,0.00,VWS V14.01,2013-02-23 02:26:00,
2013-02-22 21:31:00,29.9,27.1,30.27,SSW,203,2.0,5.0,89,0.00,,-RA,0.00,VWS V14.01,2013-02-23 02:31:00,
2013-02-22 21:36:00,29.9,27.1,30.27,SSW,200,1.0,5.0,89,0.00,,-RA,0.00,VWS V14.01,2013-02-23 02:36:00,
2013-02-22 21:41:00,30.0,27.2,30.28,SE,131,5.0,5.0,89,0.00,,-RA,0.00,VWS V14.01,2013-02-23 02:41:00,
2013-02-22 21:46:00,30.0,27.2,30.27,SSE,159,0.0,1.0,89,0.00,,-RA,0.00,VWS V14.01,2013-02-23 02:46:00,
2013-02-22 21:51:00,30.1,27.3,30.27,SW,215,0.0,5.0,89,0.00,,-RA,0.00,VWS V14.01,2013-02-23 02:51:00,
2013-02-22 21:56:00,30.2,27.4,30.28,SSW,195,0.0,5.0,89,0.00,,-RA,0.00,VWS V14.01,2013-02-23 02:56:00,
2013-02-22 22:01:00,30.2,27.6,30.28,SSE,162,1.0,4.0,90,0.00,,OVC018,0.00,VWS V14.01,2013-02-23 03:01:00,
2013-02-22 22:06:00,30.2,27.6,30.27,SSW,196,0.0,4.0,90,0.00,,OVC018,0.00,VWS V14.01,2013-02-23 03:06:00,
2013-02-22 22:11:00,30.3,27.7,30.27,SSW,210,2.0,4.0,90,0.00,,OVC018,0.00,VWS V14.01,2013-02-23 03:11:00,
2013-02-22 22:16:00,30.3,27.7,30.28,South,173,0.0,1.0,90,0.00,,OVC018,0.00,VWS V14.01,2013-02-23 03:16:00,
2013-02-22 22:21:00,30.4,27.8,30.27,SSE,148,1.0,7.0,90,0.00,,OVC018,0.00,VWS V14.01,2013-02-23 03:21:00,
2013-02-22 22:26:00,30.4,27.8,30.27,SE,139,0.0,7.0,90,0.00,,OVC018,0.00,VWS V14.01,2013-02-23 03:26:00,
2013-02-22 22:31:00,30.4,27.8,30.27,SSW,203,0.0,1.0,90,0.00,,OVC018,0.00,VWS V14.01,2013-02-23 03:31:00,
2013-02-22 22:36:00,30.4,27.8,30.27,SSE,162,5.0,5.0,90,0.00,,OVC018,0.00,VWS V14.01,2013-02-23 03:36:00,
2013-02-22 22:41:00,30.5,27.9,30.27,SSW,210,0.0,5.0,90,0.00,,OVC018,0.00,VWS V14.01,2013-02-23 03:41:00,
2013-02-22 22:46:00,30.6,28.0,30.27,South,188,0.0,2.0,90,0.00,,OVC018,0.00,VWS V14.01,2013-02-23 03:46:00,
2013-02-22 22:51:00,30.6,28.0,30.26,SSW,197,3.0,6.0,90,0.00,,OVC018,0.00,VWS V14.01,2013-02-23 03:51:00,
2013-02-22 22:56:00,30.7,28.1,30.26,SSE,160,2.0,6.0,90,0.00,,OVC018,0.00,VWS V14.01,2013-02-23 03:56:00,
2013-02-22 23:01:00,30.7,28.4,30.26,SSE,150,3.0,3.0,91,0.00,,OVC018,0.00,VWS V14.01,2013-02-23 04:01:00,
2013-02-22 23:06:00,30.7,28.4,30.26,South,186,1.0,6.0,91,0.00,,OVC018,0.00,VWS V14.01,2013-02-23 04:06:00,
2013-02-22 23:11:00,30.8,28.5,30.25,South,190,1.0,6.0,91,0.00,,OVC018,0.00,VWS V14.01,2013-02-23 04:11:00,
2013-02-22 23:16:00,30.8,28.5,30.25,SSE,166,3.0,5.0,91,0.00,,OVC018,0.00,VWS V14.01,2013-02-23 04:16:00,
2013-02-22 23:21:00,30.7,28.4,30.25,SSE,165,2.0,5.0,91,0.00,,OVC018,0.00,VWS V14.01,2013-02-23 04:21:00,
2013-02-22 23:26:00,30.7,28.4,30.25,SSE,155,4.0,5.0,91,0.00,,OVC018,0.00,VWS V14.01,2013-02-23 04:26:00,
2013-02-22 23:31:00,30.7,28.4,30.25,South,187,2.0,4.0,91,0.00,,OVC018,0.00,VWS V14.01,2013-02-23 04:31:00,
2013-02-22 23:36:00,30.7,28.4,30.25,SSE,150,3.0,6.0,91,0.00,,OVC018,0.00,VWS V14.01,2013-02-23 04:36:00,
2013-02-22 23:41:00,30.6,28.3,30.25,SSE,149,2.0,6.0,91,0.00,,OVC018,0.00,VWS V14.01,2013-02-23 04:41:00,
2013-02-22 23:46:00,30.6,28.3,30.25,SSE,163,2.0,5.0,91,0.00,,OVC018,0.00,VWS V14.01,2013-02-23 04:46:00,
2013-02-22 23:51:00,30.6,28.3,30.25,SE,127,1.0,5.0,91,0.00,,OVC018,0.00,VWS V14.01,2013-02-23 04:51:00,
2013-02-22 23:56:00,30.6,28.3,30.25,SSE,155,2.0,5.0,91,0.00,,OVC018,0.00,VWS V14.01,2013-02-23 04:56:00,